Weather Roundup
Issued by NWS Chicago, IL

Home | Current Version | Previous Version | Text Only | Print | Product List | Glossary On
Versions: 1 2 3 4 5 6 7 8 9 10 11 12 13 14 15 16 17 18 19 20 21 22 23 24 25 26 27 28 29 30 31 32 33 34 35 36 37 38 39 40 41 42 43 44 45 46 47 48 49 50
485
NZUS59 KLOT 280208
HRRLOT

CHICAGO AREA WEATHER ROUNDUP
NATIONAL WEATHER SERVICE CHICAGO/ROMEOVILLE IL
900 PM CDT THU APR 27 2017

NOTE: "FAIR" INDICATES FEW OR NO CLOUDS BELOW 12,000 FEET WITH NO
SIGNIFICANT WEATHER AND/OR OBSTRUCTIONS TO VISIBILITY.

* THESE STATIONS ARE NOT UNDER NWS QUALITY CONTROL. THEY ALSO MAY NOT
  REPORT WEATHER SUCH AS PRECIPITATION OR FOG.

ILZ005-006-012>014-019>023-280300-
NORTHEAST ILLINOIS

CITY           SKY/WX    TMP DP  RH WIND       PRES   REMARKS
OHARE          CLOUDY    45  34  65 W13G20    29.79R
MIDWAY         CLOUDY    46  36  68 W10G20    29.80R
AURORA         MOCLDY    43  37  79 SW6       29.81R
LANSING*       CLOUDY    46  41  81 W9        29.82R
JOLIET*        CLOUDY    46  39  75 W3        29.83R
WAUKEGAN       CLOUDY    43  34  70 SW8G21    29.77R
DUPAGE AIRPORT CLOUDY    43  37  79 W10       29.78S
WHEELING       CLOUDY    44  35  70 W10G18    29.80R
KANKAKEE*      CLOUDY    47  41  78 CALM      29.85R
MORRIS*        CLOUDY    45  38  78 CALM      29.82R
LEWIS AIRPORT* CLOUDY    44  40  85 W9        29.82R
NORTHERLY ISL    N/A     46  35  65 SW7         N/A
$$

WIZ051-052-058>065-066-070>072-280300-
SOUTHEAST WISCONSIN

CITY           SKY/WX    TMP DP  RH WIND       PRES   REMARKS
MILWAUKEE      CLOUDY    44  34  67 SW10G24   29.75R
KENOSHA*       CLOUDY    43  33  68 SW17G26   29.76R
RACINE*        CLOUDY    44  32  62 W17G24    29.77R
WAUKESHA       CLOUDY    39  32  75 SW13      29.74R
WEST BEND      CLOUDY    39  36  87 W10G18    29.71R
$$

INZ001>003-010>013-019-020-280300-
NORTHWEST INDIANA

CITY           SKY/WX    TMP DP  RH WIND       PRES   REMARKS
GARY*          CLOUDY    48  37  66 W14G25    29.82R
MICHIGAN CITY* NOT AVBL
RENSSELAER*    NOT AVBL
VALPARAISO     CLOUDY    49  41  74 SW15      29.83R
$$

LMZ740>746-280300-
SOUTHERN LAKE MICHIGAN

STATION/POSITION TIME  SKY/WX   TEMP WIND        PRES    VSBY
                                AIR  DIR/SP/G
                 (UTC)          (F)  (DEG/KT/KT) (MB)    (MI)
HARRISON CRIB    0130            47  260/ 19/ 25   N/A
BURNHAM HARBOR   0200            46  240/ 10/ 20   N/A
CALUMET HARBOR   0130            46  220/  7/ 16 1009.0
BURNS HARBOR     0118            49  240/ 19/ 25 1009.8R
MICHIGAN CITY    0140            48  220/ 15/ 17   N/A
$$

ABBREVIATIONS USED IN REMARKS
   TC - TEMPERATURE IN CELSIUS
  WCI - WIND CHILL INDEX
   HX - HEAT INDEX
  VSB - VISIBILITY
$$




USA.gov is the U.S. government's official web portal to all federal, state and local government web resources and services.